Ingeniero Juan Guillermo Villasana Airport

Jump to: basic info | weather | frequencies | runways | comments

Related pages: nearby airports | nearby navaids | notams | map

Basic information (top)

Codes: MMPC
Location: lon 20.077400, lat -98.782501, elev 7,600 ft / 2,316 m msl
Status: small_airport

Weather (top)

Current conditions for Licenciado Benito Juarez International Airport 42nm (77km) SSW (rec'd 2015/03/30 23:47Z):

MMMX 302347Z 02010KT 15SM SKC 23/M02 A3030 NOSIG RMK SLP108 57013 957 SC

Airport forecast for Licenciado Benito Juarez International Airport 42nm (77km) SSW (rec'd 2015/03/29 00:14Z):

TAF MMMX 292209Z 3000/3106 32008KT P6SM SCT020 BKN080 TX24/3021Z TN10/3012Z 
      TEMPO 3000/3003 6SM -RA SCT020CB BKN080 
     FM300400 04005KT P6SM SCT020 BKN080 
      BECMG 3009/3010 SCT080 
     FM301800 34006KT P6SM SCT020 
      BECMG 3020/3021 34012KT SCT020 SCT080 
      TEMPO 3022/3101 SCT020CB BKN080 
     FM310300 04005KT P6SM SCT020 SCT080

Frequencies (top)

Verify before use: may be inaccurate or out of date.

AFIS: 122.9 MHz (AFIS)

Runways (top)

03/21: 6,825 x 85 ft (2,080 x 26 m) — paved — not lighted — threshold 03 displaced 656 ft (200 m) — threshold 21 displaced 865 ft (264 m)

Latest comments (top)

No comments yet for Ingeniero Juan Guillermo Villasana Airport

More... (top)

See also NOTAMs and nearby airports and navaids, or visit the Ingeniero Juan Guillermo Villasana Airport page at the main OurAirports website..